Location: Lake Crest
(37.6062°N, 88.9176°W)
Time: 20:44:37
(UTC+00:00)

Cosmos 1943 - Pass Details

Date: 15 December 2019
Orbit: 835 x 849 km, 71.0° (Epoch: 21 January)

Event Time Altitude Azimuth Distance (km) Brightness Sun altitude
Exits shadow 11:21:46 32° 259° (WSW) 1,402 3.9 -19.4°
Maximum altitude 11:21:52 32° 257° (WSW) 1,401 3.9 -19.4°
Drops below altitude 10° 11:26:46 10° 195° (SSW) 2,442 5.6 -18.5°
Sets 11:29:25 0° 186° (S) 3,374 6.5 -18.0°
